Wind_Speed
12 12 13 13 13 13 13 14 13 13 12 11 10 9 9 8 7 7 7 6 5 4 4 3 3 3 3 3 3 4 5 6 6 7 7 7 8 9 9 10 10 10 10
11 11 11 12 12 12 13 14 13 12 12 11 10 10 9 8 8 7 7 6 6 5 5 4 4 4 4 4 4 5 6 7 7 8 8 9 9 10 10 10 11 11 12
9 9 10 11 11 11 12 12 13 12 12 12 11 10 10 9 8 8 7 7 6 6 6 5 5 5 5 5 5 6 7 8 8 9 10 10 11 11 12 12 12 11 12
6 7 8 9 9 10 11 11 11 11 11 11 11 10 10 9 8 8 7 7 6 6 7 7 6 6 6 6 6 7 8 8 9 10 10 11 12 13 13 13 14 13 13
3 4 5 7 7 8 9 9 10 10 10 10 10 10 9 9 8 8 8 7 7 7 7 8 8 7 7 7 7 7 8 9 10 10 11 12 12 13 14 14 15 15 15
2 2 3 5 5 6 7 7 8 8 9 9 9 9 9 8 8 8 8 7 7 8 8 8 8 8 8 8 8 8 9 10 10 11 12 13 13 14 14 14 15 16 16
3 2 2 2 3 4 5 6 7 7 7 8 9 8 8 8 8 8 8 8 8 8 8 9 9 10 10 10 9 9 10 11 12 12 13 13 14 14 15 15 15 15 16
5 3 2 1 2 2 3 4 5 5 6 7 8 8 7 7 7 8 9 9 9 9 9 9 10 10 11 11 11 11 12 12 13 13 14 14 15 15 15 15 16 16 16
6 6 5 4 3 3 3 3 3 4 5 6 7 8 8 7 8 8 10 10 11 11 11 11 10 11 12 12 12 13 13 14 14 14 15 15 15 15 16 16 16 16 16
8 8 7 6 5 4 5 4 4 5 5 6 7 8 8 9 9 9 10 11 11 12 12 12 11 11 12 12 13 13 14 15 15 15 15 15 15 15 16 16 17 17 17
10 9 9 8 7 6 6 6 7 7 7 7 7 8 9 9 10 11 11 12 12 13 13 13 13 13 13 14 14 14 15 15 16 15 15 15 15 16 16 17 17 17 17
10 10 11 10 10 10 8 8 9 10 10 9 9 9 10 11 11 12 13 13 14 14 14 13 13 13 14 14 14 15 15 16 16 16 16 16 16 16 17 17 18 18 18
12 11 11 12 12 12 12 11 11 11 11 12 12 12 12 13 13 13 13 14 14 15 14 13 13 13 14 14 15 16 16 17 17 17 17 17 17 17 18 18 19 19 18
15 14 13 13 14 14 13 13 13 13 14 14 15 14 14 15 15 15 14 15 15 16 16 16 16 15 15 16 16 17 18 18 18 17 17 17 18 18 18 19 19 18 18
17 16 16 15 15 15 15 15 15 15 15 15 16 16 17 17 17 16 16 17 17 17 17 17 17 17 17 18 18 18 18 19 19 18 18 18 18 18 18 18 17 17 18
18 18 18 18 18 17 16 17 17 16 16 17 18 19 18 18 18 18 18 18 19 19 19 18 19 18 19 20 20 20 19 20 20 20 19 19 19 19 18 17 16 17 17
18 19 20 21 21 20 19 18 19 19 19 19 20 21 21 21 21 21 21 20 20 20 20 21 21 20 20 20 21 21 21 21 21 21 21 21 20 20 19 18 17 17 16
22 22 21 22 22 21 21 21 22 22 22 22 23 23 23 23 23 23 23 23 23 22 22 22 22 22 22 22 22 23 23 22 22 22 23 23 22 21 20 19 18 17 17
25 25 24 23 23 23 23 23 24 24 25 25 24 25 25 26 25 25 26 26 25 24 24 24 23 23 24 24 24 24 24 24 23 23 24 24 23 23 22 20 19 18 18
28 27 27 26 26 26 27 27 28 28 27 27 27 27 28 28 27 28 28 27 26 26 26 26 26 26 26 26 26 26 25 25 24 25 25 25 25 24 23 21 20 20 20
30 30 30 30 29 28 29 29 30 30 30 29 29 29 29 29 29 30 29 28 28 28 27 27 27 27 27 27 27 28 27 26 26 25 26 26 24 24 23 23 21 21 22
31 31 31 31 31 31 31 31 32 31 31 30 30 31 31 31 31 32 31 30 29 29 29 30 29 29 29 29 28 28 29 28 27 27 27 26 25 25 25 24 24 24 23
32 33 34 33 33 33 33 33 33 32 32 31 32 32 33 33 33 33 32 32 32 32 31 31 31 30 31 30 29 30 30 30 29 28 27 27 26 26 26 26 26 26 26
34 34 35 36 35 35 35 34 34 34 33 33 34 34 34 35 34 33 32 32 32 33 32 32 32 32 32 31 31 31 31 31 30 29 29 28 27 28 27 27 28 28 28
36 36 36 37 36 36 36 35 35 35 35 35 36 36 36 36 35 34 34 34 33 33 33 33 34 33 32 31 31 31 31 31 30 31 30 29 29 30 30 30 30 30 29
37 37 38 39 39 38 37 36 37 37 36 36 36 36 36 35 34 34 33 34 33 33 34 34 33 32 32 32 32 32 32 31 31 31 31 31 30 30 31 31 31 31 30
Wind_Direction
58 58 60 64 66 68 68 68 69 69 68 67 66 66 64 61 56 51 45 41 36 28 20 357 327 312 303 298 293 298 298 296 292 287 286 288 290 294 294 293 291 291 290
59 60 59 61 63 65 65 64 63 64 64 63 62 60 58 56 51 45 40 37 29 22 18 10 351 332 317 304 301 300 296 294 296 291 288 289 291 291 291 291 293 292 289
57 61 60 58 60 61 63 63 61 59 59 58 56 54 51 47 43 39 34 32 22 14 6 358 350 339 327 313 302 301 300 300 300 296 291 289 289 290 292 291 293 293 292
50 57 57 56 59 61 63 63 60 57 53 51 52 50 46 44 39 33 28 22 14 7 359 352 345 339 331 322 314 311 308 303 301 299 296 294 292 290 288 292 294 291 289
34 51 52 54 57 56 60 61 57 53 49 45 45 41 38 36 32 28 23 17 13 6 358 351 344 339 333 325 317 313 312 308 305 300 298 296 295 296 294 291 294 293 291
354 14 36 51 55 54 53 53 50 49 46 42 36 33 32 29 27 24 20 13 9 2 355 350 344 338 331 324 317 313 312 309 308 306 303 300 297 296 296 294 295 295 293
311 317 352 35 46 49 46 43 44 46 44 39 33 27 24 21 18 18 14 9 3 356 350 346 341 334 329 323 317 314 313 310 308 307 306 303 300 298 297 296 295 296 295
288 280 294 322 344 5 21 25 30 34 32 28 24 20 18 16 15 13 8 3 357 349 342 337 333 331 327 322 315 312 311 311 309 308 306 304 301 301 299 297 297 296 295
282 271 270 272 279 296 315 342 1 8 7 9 10 10 7 8 8 7 3 358 350 342 338 333 328 327 324 320 317 313 312 312 310 308 306 305 303 303 302 301 299 299 298
277 267 266 269 270 281 292 301 316 327 334 342 348 350 352 353 353 351 350 350 346 340 335 332 327 325 324 322 318 314 313 312 311 310 308 305 304 304 305 302 300 299 299
274 267 269 268 265 270 281 293 295 296 305 319 330 335 333 335 337 338 337 338 336 335 333 330 326 322 319 319 318 315 315 314 311 309 308 305 302 303 305 304 302 301 300
266 267 264 264 267 270 271 288 290 289 296 303 314 317 321 323 324 328 331 331 331 331 331 327 326 324 323 323 322 319 317 314 313 309 307 305 302 301 302 302 302 300 299
263 265 267 265 269 272 272 279 281 290 298 299 303 309 313 318 319 320 322 323 324 324 326 324 323 324 324 324 323 321 321 317 315 313 311 308 305 302 301 301 300 299 298
263 265 268 273 276 273 274 276 281 286 291 295 299 302 304 309 313 313 315 318 318 318 317 319 317 318 320 320 319 319 321 321 318 317 313 311 310 306 303 302 300 297 296
262 265 268 274 277 276 274 276 278 282 287 291 297 299 300 303 307 308 308 311 313 313 314 316 313 313 314 315 316 317 317 321 318 317 317 315 313 309 308 306 304 300 298
261 262 264 270 275 278 279 276 275 278 283 288 292 296 298 300 303 305 305 306 308 310 312 314 310 307 308 308 309 313 315 316 316 314 314 314 310 308 310 308 304 301 298
261 261 266 274 276 280 282 280 279 276 278 284 288 292 295 296 298 299 301 303 304 307 309 309 309 307 306 306 307 309 311 311 312 312 311 309 310 310 308 305 300 298 298
265 268 272 276 276 277 277 276 277 278 279 282 285 288 290 293 294 296 296 298 299 301 303 303 305 305 306 305 304 305 306 307 310 310 307 306 305 308 305 303 296 295 297
265 266 267 271 274 273 273 274 276 278 278 280 282 285 287 289 290 292 292 293 294 295 297 299 300 302 302 302 302 302 302 303 304 306 306 308 307 306 303 299 295 293 294
264 264 266 267 268 268 270 272 274 276 277 278 280 282 284 286 287 288 288 288 289 291 292 294 295 297 298 299 299 300 301 301 301 303 305 304 303 301 301 298 295 292 291
264 265 268 267 264 264 268 269 272 275 275 276 278 281 282 283 284 285 286 286 287 289 290 290 291 293 294 295 296 297 300 301 301 301 302 302 299 296 297 297 295 294 292
265 266 267 265 265 265 266 268 272 275 275 276 278 280 280 280 281 284 284 284 285 286 287 287 288 289 291 292 292 294 296 297 298 299 299 299 297 294 294 293 292 293 293
264 266 267 267 268 268 269 272 274 275 277 276 278 279 280 281 280 281 283 283 284 285 285 286 286 287 288 289 291 292 293 295 296 296 295 295 294 292 292 291 290 292 290
265 267 268 269 268 269 272 274 274 277 277 277 278 279 279 281 281 281 282 283 284 284 284 284 285 285 285 287 289 291 292 293 293 293 293 293 292 292 291 290 291 290 290
265 266 267 269 267 270 271 272 274 275 278 279 280 281 281 281 280 280 281 283 283 283 282 282 284 284 285 286 288 289 290 290 291 291 291 291 292 291 290 289 290 289 289
266 268 268 267 269 269 270 271 273 275 276 278 280 280 280 280 280 281 281 282 282 282 283 283 283 284 284 286 286 287 289 289 289 290 289 289 289 289 290 289 289 288 287
Height
5906 5904 5903 5902 5901 5900 5899 5898 5897 5896 5896 5895 5895 5894 5894 5893 5893 5893 5892 5892 5892 5891 5891 5890 5890 5890 5890 5890 5890 5890 5889 5889 5889 5888 5888 5887 5887 5886 5885 5885 5884 5883 5882
5907 5906 5905 5904 5903 5902 5901 5900 5899 5898 5898 5897 5896 5895 5895 5895 5894 5893 5893 5892 5892 5891 5891 5890 5890 5889 5889 5889 5889 5888 5888 5887 5887 5887 5886 5885 5885 5884 5883 5882 5882 5880 5880
5909 5908 5907 5906 5905 5904 5902 5902 5901 5900 5899 5898 5897 5896 5896 5895 5895 5894 5893 5892 5892 5892 5891 5890 5889 5889 5888 5888 5887 5887 5886 5886 5885 5884 5884 5883 5882 5881 5881 5880 5879 5878 5877
5910 5909 5908 5908 5907 5905 5904 5903 5902 5902 5901 5900 5898 5898 5897 5896 5895 5894 5893 5893 5892 5892 5891 5890 5889 5888 5888 5887 5886 5885 5885 5884 5883 5882 5881 5881 5880 5879 5878 5877 5876 5875 5874
5911 5910 5909 5909 5908 5907 5906 5905 5904 5903 5902 5901 5900 5898 5897 5896 5895 5894 5893 5892 5892 5891 5890 5889 5888 5887 5887 5886 5885 5884 5883 5882 5881 5880 5879 5878 5877 5876 5875 5874 5873 5871 5870
5911 5911 5910 5909 5909 5908 5907 5906 5905 5904 5902 5901 5900 5899 5898 5897 5896 5894 5893 5892 5891 5891 5890 5889 5888 5887 5885 5884 5883 5882 5881 5880 5879 5877 5876 5875 5874 5873 5872 5870 5869 5868 5866
5911 5911 5910 5910 5909 5908 5908 5906 5905 5904 5903 5902 5900 5899 5898 5897 5896 5895 5893 5892 5891 5890 5889 5888 5887 5885 5884 5883 5881 5880 5879 5878 5876 5875 5873 5872 5871 5869 5868 5867 5866 5864 5863
5910 5910 5909 5909 5909 5908 5907 5907 5905 5904 5903 5902 5900 5899 5898 5897 5896 5895 5893 5892 5891 5889 5888 5887 5885 5884 5882 5881 5880 5878 5877 5875 5874 5872 5870 5869 5867 5866 5865 5864 5862 5861 5859
5909 5908 5908 5908 5908 5908 5907 5906 5905 5904 5903 5902 5900 5899 5897 5896 5895 5894 5893 5892 5890 5889 5887 5885 5884 5882 5881 5879 5878 5876 5875 5873 5871 5869 5867 5866 5864 5863 5861 5860 5859 5858 5856
5907 5907 5907 5907 5907 5907 5906 5905 5905 5904 5903 5901 5900 5898 5897 5896 5895 5894 5893 5891 5890 5888 5886 5884 5882 5880 5879 5877 5876 5874 5872 5870 5868 5866 5864 5863 5861 5859 5858 5856 5855 5853 5852
5905 5905 5905 5905 5905 5905 5905 5904 5904 5903 5901 5900 5899 5897 5896 5895 5894 5893 5891 5890 5888 5886 5884 5882 5881 5878 5877 5875 5873 5871 5869 5867 5865 5863 5861 5859 5857 5856 5854 5853 5851 5849 5848
5902 5903 5903 5903 5903 5902 5902 5902 5901 5901 5899 5898 5897 5896 5895 5894 5892 5891 5889 5888 5886 5884 5882 5880 5878 5876 5874 5872 5870 5868 5866 5864 5862 5859 5857 5855 5854 5852 5850 5849 5847 5845 5843
5899 5900 5900 5900 5900 5899 5899 5899 5898 5897 5897 5896 5895 5893 5893 5892 5890 5889 5887 5885 5884 5882 5880 5878 5876 5873 5871 5870 5867 5865 5863 5861 5858 5856 5853 5851 5850 5848 5846 5844 5843 5841 5839
5896 5896 5896 5896 5896 5896 5896 5895 5895 5895 5894 5893 5891 5890 5889 5888 5887 5886 5884 5883 5881 5879 5877 5875 5873 5871 5869 5867 5865 5862 5860 5858 5855 5852 5850 5848 5846 5844 5842 5840 5838 5836 5835
5891 5892 5892 5892 5892 5892 5891 5891 5891 5891 5890 5889 5888 5887 5886 5885 5884 5883 5881 5880 5878 5876 5874 5871 5869 5867 5866 5864 5861 5859 5857 5854 5852 5849 5847 5844 5842 5840 5838 5836 5833 5832 5830
5886 5887 5887 5888 5888 5887 5887 5886 5886 5886 5886 5885 5884 5884 5882 5881 5880 5879 5877 5876 5874 5872 5870 5868 5866 5864 5862 5860 5858 5856 5853 5850 5848 5846 5843 5841 5838 5836 5833 5831 5829 5828 5827
5881 5881 5882 5882 5883 5883 5882 5881 5881 5881 5881 5880 5880 5879 5878 5877 5875 5874 5872 5871 5870 5868 5866 5864 5862 5860 5857 5855 5853 5851 5849 5846 5844 5842 5839 5837 5834 5831 5829 5827 5825 5824 5822
5875 5876 5876 5876 5876 5876 5876 5876 5876 5875 5875 5875 5875 5874 5873 5872 5870 5868 5867 5866 5864 5863 5861 5859 5857 5855 5853 5851 5848 5846 5844 5842 5840 5837 5835 5832 5829 5827 5824 5822 5821 5819 5818
5869 5869 5870 5870 5870 5869 5870 5869 5869 5869 5868 5868 5868 5867 5866 5865 5864 5862 5861 5859 5858 5857 5855 5854 5851 5850 5847 5845 5843 5840 5838 5836 5834 5832 5830 5827 5825 5822 5820 5818 5816 5814 5813
5861 5862 5862 5862 5862 5862 5862 5863 5862 5862 5861 5861 5860 5860 5859 5858 5857 5855 5854 5852 5851 5850 5849 5847 5845 5844 5842 5839 5837 5834 5832 5830 5828 5826 5824 5821 5819 5817 5814 5812 5811 5809 5808
5853 5854 5854 5853 5854 5854 5854 5855 5854 5853 5853 5853 5852 5852 5851 5850 5849 5848 5846 5845 5844 5843 5842 5840 5839 5837 5835 5833 5830 5828 5826 5823 5821 5819 5817 5815 5812 5811 5809 5807 5806 5804 5802
5845 5845 5845 5845 5845 5846 5846 5846 5846 5845 5844 5844 5844 5843 5843 5841 5840 5839 5838 5837 5836 5835 5834 5832 5831 5829 5827 5825 5823 5821 5819 5817 5815 5812 5810 5808 5806 5804 5803 5801 5799 5797 5796
5836 5836 5837 5837 5836 5836 5836 5836 5836 5835 5835 5835 5835 5834 5833 5832 5830 5829 5829 5828 5827 5826 5825 5823 5822 5821 5819 5817 5815 5813 5811 5809 5807 5805 5803 5801 5799 5797 5795 5794 5792 5790 5788
5826 5826 5827 5827 5827 5827 5826 5826 5826 5826 5825 5826 5825 5825 5823 5822 5821 5820 5819 5818 5818 5816 5815 5814 5813 5811 5810 5808 5806 5804 5802 5800 5798 5797 5795 5793 5791 5789 5788 5786 5784 5783 5781
5816 5816 5816 5816 5816 5816 5815 5816 5816 5816 5816 5816 5815 5814 5813 5812 5811 5810 5809 5808 5807 5806 5805 5804 5802 5801 5800 5799 5797 5795 5794 5792 5790 5788 5787 5785 5783 5781 5779 5777 5775 5774 5772
5806 5806 5806 5806 5806 5807 5807 5806 5806 5805 5806 5806 5805 5804 5803 5802 5800 5799 5799 5798 5797 5796 5795 5793 5792 5791 5790 5788 5787 5786 5785 5783 5781 5780 5778 5776 5774 5772 5770 5768 5766 5765 5763